| time (UTC) | temp F | wind direction | speed knots | gust knots | rain 1hr in | rain 24hr in | rain mn in | humidity % | barometer mb |
| 20260503013016 | 66 | 86 | 0.9 | 2.6 | 0.01 | 0.48 | 0.48 | 90 | 1019.9 |
| 20260503011518 | 67 | 96 | 0.0 | 0.0 | 0.01 | 0.47 | 0.47 | 90 | 1019.8 |
| 20260503010027 | 67 | 96 | 0.0 | 0.9 | 0.03 | 0.47 | 0.47 | 90 | 1019.8 |
| 20260503004533 | 67 | 105 | 0.0 | 1.7 | 0.04 | 0.47 | 0.47 | 90 | 1019.9 |
| 20260503003022 | 68 | 76 | 0.9 | 5.2 | 0.05 | 0.47 | 0.47 | 90 | 1019.9 |
| 20260503001514 | 68 | 71 | 0.0 | 1.7 | 0.04 | 0.46 | 0.46 | 90 | 1019.9 |
| 20260503000023 | 68 | 85 | 0.0 | 0.9 | 0.02 | 0.44 | 0.44 | 90 | 1019.9 |
| 20260502234529 | 68 | 79 | 1.7 | 4.3 | 0.01 | 0.43 | 0.43 | 89 | 1019.9 |
| 20260502233028 | 68 | 76 | 0.9 | 2.6 | 0.01 | 0.42 | 0.42 | 90 | 1019.6 |
| 20260502231512 | 68 | 98 | 0.0 | 1.7 | 0.01 | 0.42 | 0.42 | 89 | 1019.4 |
| 20260502230023 | 68 | 74 | 0.9 | 3.5 | 0.01 | 0.42 | 0.42 | 89 | 1019.2 |
| 20260502224501 | 68 | 63 | 0.9 | 6.1 | 0.01 | 0.42 | 0.42 | 89 | 1019.0 |
| 20260502223006 | 68 | 74 | 0.0 | 0.0 | 0.00 | 0.41 | 0.41 | 89 | 1019.1 |
| 20260502221508 | 69 | 172 | 0.9 | 3.5 | 0.00 | 0.41 | 0.41 | 89 | 1018.9 |
| 20260502220015 | 69 | 188 | 0.0 | 1.7 | 0.00 | 0.41 | 0.41 | 89 | 1018.9 |
| 20260502214501 | 69 | 141 | 0.0 | 1.7 | 0.00 | 0.41 | 0.41 | 90 | 1018.8 |
| 20260502213002 | 68 | 112 | 0.0 | 0.0 | 0.01 | 0.41 | 0.41 | 91 | 1018.6 |
| 20260502211508 | 68 | 112 | 0.0 | 0.9 | 0.01 | 0.41 | 0.41 | 92 | 1018.6 |
| 20260502210013 | 68 | 112 | 0.0 | 1.7 | 0.01 | 0.41 | 0.41 | 91 | 1018.8 |
| 20260502204518 | 68 | 72 | 1.7 | 5.2 | 0.01 | 0.41 | 0.41 | 91 | 1018.9 |
| 20260502203003 | 67 | 67 | 5.2 | 9.6 | 0.04 | 0.40 | 0.40 | 90 | 1018.8 |
| 20260502200008 | 67 | 28 | 2.6 | 11.3 | 0.40 | 0.40 | 0.40 | 91 | 1018.7 |
| 20260502194513 | 67 | 333 | 5.2 | 11.3 | 0.40 | 0.40 | 0.40 | 91 | 1018.4 |
| 20260502193020 | 67 | 49 | 7.0 | 15.6 | 0.36 | 0.36 | 0.36 | 89 | 1018.5 |
| 20260502191523 | 68 | 38 | 7.8 | 15.6 | 0.31 | 0.31 | 0.31 | 89 | 1018.6 |
| 20260502190012 | 72 | 20 | 8.7 | 17.4 | 0.00 | 0.00 | 0.00 | 83 | 1018.5 |
| 20260502184525 | 73 | 42 | 10.4 | 20.0 | 0.00 | 0.00 | 0.00 | 82 | 1018.6 |
| 20260502183026 | 76 | 16 | 9.6 | 19.1 | 0.00 | 0.00 | 0.00 | 74 | 1018.7 |
| 20260502181521 | 77 | 86 | 7.8 | 17.4 | 0.00 | 0.00 | 0.00 | 74 | 1018.9 |
| 20260502163011 | 79 | 41 | 8.7 | 14.8 | 0.00 | 0.00 | 0.00 | 66 | 1020.1 |
| 20260502161521 | 79 | 335 | 8.7 | 14.8 | 0.00 | 0.00 | 0.00 | 64 | 1020.3 |
| 20260502151514 | 75 | 32 | 7.8 | 13.9 | 0.00 | 0.00 | 0.00 | 76 | 1020.3 |
| 20260502123029 | 71 | 147 | 2.6 | 3.5 | 0.00 | 0.00 | 0.00 | 78 | 1019.3 |
| 20260502121504 | 71 | 155 | 0.0 | 1.7 | 0.00 | 0.00 | 0.00 | 80 | 1019.2 |
| 20260502114511 | 67 | 77 | 0.0 | 5.2 | 0.00 | 0.00 | 0.00 | 90 | 1019.5 |
| 20260502113017 | 66 | 1 | 0.9 | 2.6 | 0.00 | 0.00 | 0.00 | 92 | 1019.4 |
| 20260502111522 | 66 | 101 | 0.0 | 2.6 | 0.00 | 0.00 | 0.00 | 93 | 1019.2 |
| 20260502110013 | 66 | 342 | 1.7 | 5.2 | 0.00 | 0.00 | 0.00 | 93 | 1018.8 |
| 20260502104508 | 66 | 30 | 5.2 | 8.7 | 0.00 | 0.00 | 0.00 | 92 | 1018.7 |
| 20260502103016 | 66 | 90 | 3.5 | 7.8 | 0.00 | 0.00 | 0.00 | 92 | 1018.6 |
| 20260502101534 | 67 | 352 | 0.0 | 0.0 | 0.00 | 0.00 | 0.00 | 93 | 1018.3 |
| 20260502091518 | 67 | 352 | 0.0 | 0.0 | 0.00 | 0.00 | 0.00 | 93 | 1017.7 |
| 20260502064522 | 68 | 1 | 0.0 | 0.0 | 0.00 | 0.00 | 0.00 | 92 | 1018.9 |
| 20260502063028 | 68 | 1 | 0.0 | 0.0 | 0.00 | 0.00 | 0.00 | 92 | 1018.8 |
| 20260502061509 | 68 | 1 | 0.0 | 0.0 | 0.00 | 0.00 | 0.00 | 92 | 1018.7 |
| 20260502060018 | 68 | 49 | 0.0 | 0.0 | 0.00 | 0.00 | 0.00 | 92 | 1019.1 |
| 20260502054519 | 68 | 345 | 0.0 | 0.0 | 0.00 | 0.00 | 0.00 | 92 | 1019.4 |
| 20260502053024 | 68 | 265 | 0.0 | 1.7 | 0.00 | 0.00 | 0.00 | 92 | 1019.5 |
| 20260502051529 | 68 | 351 | 0.0 | 0.0 | 0.00 | 0.00 | 0.00 | 92 | 1019.9 |
| 20260502050035 | 68 | 351 | 0.0 | 0.0 | 0.00 | 0.00 | 0.00 | 92 | 1020.2 |
| 20260502044516 | 68 | 351 | 0.0 | 0.0 | 0.00 | 0.00 | 0.00 | 92 | 1020.2 |
| 20260502043022 | 68 | 351 | 0.0 | 0.0 | 0.00 | 0.00 | 0.00 | 92 | 1019.9 |
| 20260502041531 | 68 | 351 | 0.0 | 0.0 | 0.00 | 0.00 | 0.00 | 92 | 1020.1 |
| 20260502040024 | 68 | 355 | 0.0 | 0.0 | 0.00 | 0.00 | 0.00 | 92 | 1020.1 |
| 20260502034526 | 68 | 331 | 0.0 | 0.0 | 0.00 | 0.00 | 0.00 | 92 | 1020.1 |
| 20260502033017 | 68 | 330 | 0.0 | 0.0 | 0.00 | 0.00 | 0.00 | 92 | 1020.1 |
| 20260502031523 | 68 | 332 | 0.0 | 0.0 | 0.00 | 0.00 | 0.00 | 92 | 1020.1 |
| 20260502030026 | 68 | 304 | 0.0 | 0.0 | 0.00 | 0.00 | 0.00 | 92 | 1020.1 |
| 20260502024527 | 68 | 58 | 0.0 | 0.0 | 0.00 | 0.00 | 0.00 | 91 | 1019.9 |
| 20260502023026 | 68 | 21 | 0.0 | 0.0 | 0.00 | 0.00 | 0.00 | 91 | 1019.8 |
| 20260502021521 | 68 | 21 | 0.0 | 0.0 | 0.00 | 0.00 | 0.00 | 91 | 1019.6 |
| 20260502020002 | 68 | 21 | 0.0 | 0.0 | 0.00 | 0.00 | 0.00 | 90 | 1019.2 |
| 20260502014515 | 68 | 21 | 0.0 | 0.0 | 0.00 | 0.00 | 0.00 | 90 | 1018.4 |